Airfield :
LOGIN :

Register | Disclaimer

   EN    FR    IT 

 










Legend :    VFR   Marginal VFR   IFR   Intensive IFR   Very Intensive IFR
Visi :
Ceiling :
>= 8 km
>= 3000ft
5 to 8 km
1000 to 3000 ft
1500m to 5 km
500 to 1000 ft
800 to 1500m
200 to 500 ft
< 800m
< 200 ft
Symbols :   Thunderstorms  Fog  Heavy snow  Heavy precipitations  Wind > 20 kt
SIGMETs :     Misc.  Thunderstorms  Icing  Turbulence  Mountain Waves  Volcanic Ashes







- Airport Elevation : 313 ft
- Download approach charts


LFQA - Reims-Prunay

CURRENT METAR :
  • 221800Z AUTO 30003KT 9999 OVC038 08/06 Q1017

EXPIRED METARs :
  • 221730Z AUTO 33004KT 9999 FEW026 OVC039 08/07 Q1016
  • 221700Z AUTO 32008KT 9999 FEW017 BKN025 08/07 Q1016
  • 221630Z AUTO 33007KT 9999 FEW013 BKN021 BKN026 08/07 Q1015
  • 221600Z AUTO 31006KT 270V330 9999 FEW018 09/07 Q1014
  • 221530Z AUTO 33010KT 9999 BKN013 BKN020 OVC062 10/08 Q1013

TAF N/A
No reported NOTAMs for that airfield.



MET'MAP, your aeronautical weather chart ! - Copyright ORBIFLY December 2007 - Disclaimer

ORBIFLY MET'MAP TEAM :

Programming & Development : Alexandra Zaïnal
Concept & Development : Baudouin d'Aumeries
Co-Development & Prog : Marc-Olivier Méhu
Technical & hardware support : Manuel Goepfert

Contact : metmap@orbifly.com




SOURCES & CREDITS :

   NOAA